This demonstration page uses our WeatherBlox Daily Observations layout. Learn more.

39.92423, -83.80882

Hourly Observations for September 1, 2016

Temp ( °F °C ) Dew Point ( °F °C ) Humidity (%) Winds ( mph kmh ) Pressure ( in mb ) Visibility ( mi km ) Precip ( " mm )
12:56 am 00:56 Partly Cloudy 71 21.7 67 19.4 87 87 NE 10 17 29.97 1015 10 16.0934 0 0
1:04 am 01:04 Mostly Cloudy 72 22 66 19 83 83 NE 14 22 29.97 1015 10 16.0934 0 0
1:56 am 01:56 Mostly Cloudy 69 20.6 64 17.8 84 84 NE 15 24 29.98 1015 10 16.0934 0 0
2:56 am 02:56 Clear 67 19.4 63 17.2 87 87 NE 15 24 29.98 1015 10 16.0934 0 0
3:56 am 03:56 Cloudy 66 18.9 60 15.6 81 81 NE 10 17 29.99 1016 10 16.0934 0 0
4:56 am 04:56 Cloudy 66 18.9 59 15 78 78 NNE 7 11 30 1016 10 16.0934 0 0
5:56 am 05:56 Cloudy 66 18.9 58 14.4 75 75 NNE 13 20 30.01 1016 10 16.0934 0 0
6:56 am 06:56 Mostly Cloudy 64 17.8 56 13.3 75 75 N 12 19 30.03 1017 10 16.0934 0 0
7:56 am 07:56 Mostly Cloudy 64 17.8 56 13.3 75 75 NNE 12 19 30.04 1017 10 16.0934 0 0
8:56 am 08:56 Sunny 66 18.9 58 14.4 75 75 N 10 17 30.06 1018 10 16.0934 0 0
9:56 am 09:56 Sunny 69 20.6 59 15 70 70 NNE 12 19 30.06 1018 10 16.0934 0 0
10:56 am 10:56 Partly Cloudy 72 22.2 58 14.4 61 61 NNE 13 20 30.07 1018 10 16.0934 0 0
11:56 am 11:56 Mostly Cloudy 74 23.3 57 13.9 56 56 NNE 14 22 30.07 1018 10 16.0934 0 0
12:56 pm 12:56 Mostly Cloudy 72 22.2 55 12.8 55 55 N 9 15 30.06 1018 10 16.0934 0 0
1:56 pm 13:56 Mostly Cloudy 74 23.3 54 12.2 50 50 N 10 17 30.06 1018 10 16.0934 0 0
2:56 pm 14:56 Cloudy 74 23.3 57 13.9 56 56 NNE 13 20 30.06 1018 10 16.0934 0 0
3:56 pm 15:56 Mostly Cloudy 74 23.3 55 12.8 52 52 N 13 20 30.06 1018 10 16.0934 0 0
4:56 pm 16:56 Mostly Cloudy 75 23.9 56 13.3 52 52 N 13 20 30.06 1018 10 16.0934 0 0
5:56 pm 17:56 Partly Cloudy 74 23.3 55 12.8 52 52 NNW 10 17 30.06 1018 10 16.0934 0 0
6:56 pm 18:56 Mostly Sunny 72 22.2 56 13.3 57 57 N 10 17 30.06 1018 10 16.0934 0 0
7:56 pm 19:56 Partly Cloudy 73 22.8 71 21.7 94 94 Calm 29.94 1014 10 16.0934 0 0
8:56 pm 20:56 Clear 67 19.4 57 13.9 71 71 NNE 10 17 30.11 1020 10 16.0934 0 0
9:56 pm 21:56 Clear 64 17.8 56 13.3 75 75 NNE 10 17 30.13 1020 10 16.0934 0 0
10:56 pm 22:56 Clear 63 17.2 56 13.3 78 78 NE 9 15 30.13 1020 10 16.0934 0 0
11:56 pm 23:56 Clear 62 16.7 56 13.3 80 80 NE 12 19 30.14 1021 10 16.0934 0 0

Powered by AerisWeather